Dewpoint
60 60 64 68 70 70 70 69 68 69 70 70 70 70 70 70 69 69 67 65 63 62 63 65 65 67 68 68 68 67 69 69 68 68 67 66 66 65 65 64 64 61 67
57 60 64 68 70 70 71 70 69 70 70 70 70 69 69 69 68 67 66 64 64 63 63 65 65 67 68 66 66 69 68 68 68 68 67 67 66 65 64 64 64 63 65
58 64 67 69 69 70 70 71 71 71 70 69 69 68 67 67 67 66 65 65 64 64 65 67 68 68 68 66 66 67 68 68 68 67 66 65 65 66 65 64 63 63 64
58 63 66 70 69 69 69 69 70 70 70 69 67 67 67 67 68 66 65 66 65 65 67 69 68 68 68 66 65 66 67 67 67 68 65 60 65 67 66 63 63 63 63
53 58 60 63 67 70 69 69 69 69 69 69 69 67 67 68 68 67 65 66 67 68 67 69 68 68 67 67 64 64 66 67 67 64 61 58 66 66 65 63 63 63 63
45 47 52 56 59 63 66 70 70 69 69 68 69 69 68 68 68 69 67 67 67 68 68 68 68 68 68 67 68 68 67 65 67 58 56 62 64 65 63 63 63 62 62
41 41 41 48 49 55 59 60 62 67 69 69 69 69 69 69 69 69 69 69 69 68 68 68 68 67 66 67 67 68 67 67 63 61 60 61 63 64 64 63 63 63 63
37 39 40 43 44 46 50 53 55 57 60 64 70 69 69 68 69 69 69 70 69 68 68 69 69 67 66 66 66 68 68 65 63 63 62 62 64 63 63 63 63 63 63
39 39 40 39 40 43 48 49 50 51 53 54 58 65 69 69 69 69 69 68 69 70 69 69 69 68 67 66 65 67 68 65 61 59 59 59 64 64 64 63 63 64 63
42 41 41 40 39 39 39 46 46 46 48 47 50 54 55 64 68 68 69 68 68 69 69 69 69 69 68 67 67 66 68 67 63 59 58 58 64 64 63 63 63 64 63
41 43 43 43 42 41 39 39 42 43 43 45 47 49 50 60 65 66 67 67 67 68 68 68 69 69 69 68 67 67 66 63 61 58 55 56 63 64 63 63 63 64 63
41 42 44 44 44 43 41 41 41 39 40 39 40 43 45 50 56 61 66 67 67 68 68 68 69 69 69 66 67 66 64 58 56 56 55 57 62 63 63 63 65 65 64
43 43 44 44 44 44 43 43 41 40 40 39 40 40 41 42 45 53 61 66 66 66 67 67 67 66 65 62 63 65 63 59 55 53 53 58 61 61 62 63 65 66 66
42 42 43 44 44 44 44 43 42 41 41 41 41 42 42 41 40 43 49 56 63 66 66 66 67 66 65 62 62 62 63 62 57 54 52 55 58 60 60 62 64 66 66
39 41 42 44 44 44 45 45 45 43 42 41 42 43 43 44 43 41 40 43 51 60 65 66 66 65 65 64 63 63 63 63 62 62 59 55 56 58 59 59 61 63 65
38 40 42 43 44 45 46 47 47 46 45 45 45 44 45 45 44 44 44 43 42 45 53 62 65 65 65 65 65 64 64 63 62 62 62 62 58 58 59 60 59 59 62
37 39 42 43 45 46 46 47 47 46 46 46 45 45 45 46 46 46 45 45 45 43 42 47 55 60 63 64 65 65 65 64 64 63 63 62 62 59 59 61 61 60 62
38 39 43 46 46 45 46 48 47 47 47 46 45 46 46 46 47 46 46 45 45 46 46 45 45 48 59 62 62 63 64 64 63 63 63 63 63 63 61 60 62 62 61
37 40 44 46 46 45 46 48 48 48 48 48 48 48 49 49 48 48 46 46 46 47 48 48 46 45 44 49 56 60 62 62 63 63 63 63 63 64 63 62 60 61 62
39 41 44 45 46 46 47 48 48 48 49 49 49 50 49 48 48 49 49 48 48 48 48 48 47 47 46 45 45 45 51 55 59 61 62 62 63 63 64 63 63 61 60
39 40 42 44 45 46 46 46 47 48 49 50 51 51 51 52 53 51 51 50 49 48 47 47 48 48 48 48 48 48 48 49 49 53 57 60 61 63 63 63 64 63 62
37 39 42 43 45 46 46 47 47 47 48 50 48 48 48 49 50 50 50 51 52 53 54 52 51 49 49 49 48 48 47 46 45 46 48 54 58 60 61 62 62 63 63
37 39 41 44 45 45 46 46 46 46 46 46 46 46 47 48 49 48 48 49 50 51 51 51 52 53 52 53 52 49 47 45 47 48 47 48 53 58 60 61 62 62 62
39 41 42 43 44 43 45 44 44 44 44 44 45 45 46 47 46 46 46 47 47 48 49 50 51 51 51 51 53 52 52 51 49 48 48 48 49 48 51 57 58 59 60
40 41 42 43 43 43 43 43 43 43 43 43 43 43 44 44 45 44 44 45 45 45 46 46 47 48 49 49 48 49 49 49 49 48 46 47 48 48 48 50 54 58 61
41 40 41 41 41 42 42 42 42 42 41 41 40 41 40 42 43 42 42 43 44 44 44 45 45 46 48 48 49 49 48 48 48 48 47 47 47 48 48 47 49 56 58
Wind_Speed
9 6 6 2 5 6 4 3 3 3 3 3 3 3 2 2 2 2 1 1 1 2 2 1 1 4 2 5 4 4 6 6 6 8 9 8 8 7 6 3 7 7 4
5 5 3 3 8 7 7 6 5 4 3 3 3 3 2 1 1 1 1 1 2 1 2 2 1 2 3 4 3 4 4 4 4 6 7 8 8 6 5 5 11 8 5
10 10 15 6 8 7 6 6 6 5 4 3 3 3 3 3 2 2 2 2 3 2 2 4 2 2 3 4 3 3 3 3 3 3 6 7 9 7 4 4 5 4 3
11 14 18 16 2 4 5 5 6 6 6 4 4 4 4 4 4 4 4 4 4 4 2 4 3 3 3 3 3 3 3 2 1 4 9 3 10 9 5 4 3 3 2
12 15 18 21 20 13 5 2 4 5 6 6 6 5 5 6 5 5 6 6 6 6 6 4 4 4 4 4 4 4 4 4 4 7 12 4 8 7 5 3 3 3 0
12 15 18 19 18 18 17 16 10 6 5 5 7 7 8 8 7 7 7 7 7 7 6 8 6 6 5 6 6 6 5 6 6 10 6 4 2 8 5 3 1 2 1
12 12 14 16 16 16 16 15 15 14 11 8 7 8 9 10 10 10 9 9 9 9 9 11 9 8 8 8 9 9 7 6 9 10 6 3 6 7 4 4 4 3 3
11 10 10 11 10 11 13 14 13 13 13 12 9 8 11 11 12 13 12 11 11 11 10 12 12 10 10 10 11 11 8 8 10 12 10 7 10 6 6 6 6 6 6
10 10 10 10 9 5 9 12 12 11 11 11 10 9 10 11 12 13 13 13 12 13 13 13 14 13 13 12 12 13 11 10 12 14 13 9 12 10 9 9 9 9 9
9 9 10 10 10 10 9 10 9 7 9 8 7 7 9 10 14 15 15 16 16 14 14 15 15 16 15 14 14 14 13 12 14 15 13 11 12 10 11 12 12 11 11
6 8 9 10 10 10 10 8 9 5 8 9 7 5 9 10 11 11 13 17 15 17 16 16 16 16 16 16 16 16 15 15 17 15 14 12 13 11 12 14 14 14 14
6 7 9 10 11 11 10 11 11 9 9 10 10 10 11 10 11 11 15 15 11 13 16 16 16 17 16 16 13 20 15 17 17 16 13 12 13 13 15 16 16 16 17
5 7 9 11 11 11 11 12 10 10 11 10 12 11 12 13 13 12 10 11 12 14 15 16 17 17 19 17 14 14 17 17 15 15 16 12 14 15 17 19 18 18 19
4 6 9 11 11 11 11 11 11 11 11 12 13 13 14 13 13 14 13 12 12 13 15 14 12 15 17 16 16 19 15 14 12 13 14 15 18 18 19 22 21 20 20
5 7 8 10 10 11 12 11 12 12 12 13 13 13 13 14 15 15 15 14 14 12 12 15 14 13 14 17 16 18 17 17 18 15 13 14 20 21 21 23 25 24 24
4 7 8 9 9 10 10 11 12 11 12 12 12 12 13 14 15 15 15 15 15 15 15 12 12 14 15 14 14 16 18 17 17 18 16 16 20 24 23 23 27 27 27
5 6 8 9 9 10 10 10 10 10 11 11 12 12 13 13 14 16 16 16 15 16 17 16 15 14 14 14 15 16 18 20 19 20 18 15 17 23 25 25 26 28 28
4 6 7 7 8 10 10 10 10 10 10 9 10 10 11 13 14 15 14 15 16 15 14 14 14 15 13 14 15 16 17 17 21 20 19 19 17 16 20 27 26 28 30
3 5 6 6 8 10 9 10 10 10 9 9 9 10 12 12 12 12 12 14 15 14 14 14 14 15 16 14 16 16 15 15 18 18 19 20 21 20 17 16 29 30 30
2 3 4 6 7 9 8 9 9 10 11 10 11 13 15 14 14 12 11 12 12 12 13 13 16 14 15 16 17 18 15 15 16 17 18 19 20 20 20 20 18 19 28
2 2 4 6 7 8 8 9 10 10 11 11 12 15 17 18 22 16 13 13 11 11 12 14 14 14 13 14 16 16 18 20 22 21 19 19 21 20 21 21 20 18 18
1 2 4 5 6 6 7 7 7 7 5 6 9 11 12 13 14 15 16 15 16 16 17 15 14 13 13 12 14 15 17 16 17 19 19 20 20 17 18 20 21 21 21
2 2 3 4 5 5 7 6 7 6 6 6 8 9 10 11 11 12 11 10 11 11 11 12 13 15 15 16 16 15 11 14 15 17 19 17 15 14 16 18 15 15 15
3 1 2 3 4 4 5 5 7 7 8 7 7 7 7 7 9 11 12 11 11 9 10 10 11 12 13 13 15 12 18 17 15 14 13 16 18 19 18 16 17 18 21
4 1 1 1 1 3 4 5 6 6 7 7 8 9 8 7 9 11 12 12 11 9 10 11 11 10 9 10 11 14 16 16 15 18 20 18 15 14 14 13 15 17 16
6 4 3 2 1 2 3 3 4 6 7 8 10 9 10 9 8 10 13 12 10 10 11 10 10 10 10 10 10 11 11 10 16 17 20 19 20 18 18 18 17 14 11
Wind_Direction
45 13 51 17 179 172 164 150 158 152 140 136 125 122 105 73 78 89 127 170 202 208 194 137 27 34 103 112 90 71 79 59 77 98 100 105 105 100 94 59 333 93 82
334 25 94 160 186 185 179 183 177 169 163 158 151 155 158 175 185 195 212 222 229 216 204 208 189 84 122 115 119 92 79 76 101 117 128 120 108 104 88 40 24 81 61
38 22 25 137 174 180 191 186 191 192 176 185 184 189 186 195 207 226 232 230 238 223 226 240 171 151 141 140 143 138 121 95 128 168 204 209 140 139 105 78 65 76 78
55 46 38 42 86 174 204 214 207 199 199 202 209 211 206 214 218 222 223 230 239 234 246 148 164 159 158 164 174 177 173 154 183 239 242 207 150 145 131 119 110 107 104
63 55 41 41 40 35 20 275 236 235 222 214 220 222 230 235 232 235 230 230 241 267 241 195 191 194 204 205 201 196 200 204 231 257 259 254 104 136 132 143 165 166 306
59 59 49 44 42 40 37 30 9 318 282 263 246 227 233 239 243 241 240 242 247 251 249 222 217 223 223 226 228 220 222 221 240 240 252 124 62 143 143 163 71 99 203
54 48 54 46 42 39 37 33 27 23 6 318 288 275 255 244 245 247 246 237 242 253 257 234 224 231 235 239 240 236 234 227 237 262 259 229 192 138 170 197 205 213 217
53 46 38 59 46 47 42 29 23 17 11 4 349 309 284 274 255 255 253 244 243 243 245 238 236 237 237 238 241 243 227 241 248 262 239 238 129 144 215 213 213 218 218
52 42 33 24 19 62 71 35 16 12 6 357 351 341 327 309 281 259 256 255 249 248 244 239 238 236 238 239 241 244 232 237 258 265 254 238 176 177 217 221 218 223 225
50 39 28 18 8 1 347 43 351 354 348 335 324 326 321 291 269 258 253 252 249 244 244 243 244 247 237 236 237 241 243 242 253 258 269 254 162 187 218 227 222 225 230
44 29 18 10 360 351 338 341 317 267 313 285 279 277 303 285 287 266 260 252 247 242 245 246 246 247 245 240 237 237 238 244 245 239 248 239 183 199 227 234 231 225 226
21 14 7 360 353 344 332 333 320 312 309 303 298 301 297 289 281 286 282 271 266 256 251 248 250 248 248 251 231 231 233 237 248 249 244 216 196 213 233 237 238 234 229
10 7 360 353 346 342 337 327 312 318 311 303 301 294 297 290 281 268 265 274 258 247 247 240 246 241 242 240 237 224 224 230 244 247 250 217 203 221 234 235 237 241 232
8 7 354 348 344 340 335 323 318 312 313 305 300 311 297 297 290 282 279 264 267 269 259 249 245 249 250 247 239 241 249 252 245 247 257 224 211 222 239 245 239 235 238
2 355 351 347 344 340 335 328 322 316 313 311 307 300 302 296 293 293 287 284 278 255 263 268 259 252 255 263 258 241 235 237 245 260 263 238 214 218 228 241 245 243 239
357 349 344 346 345 336 331 327 322 318 320 315 311 306 306 301 295 292 288 283 280 278 276 251 266 269 261 252 254 269 278 268 249 241 244 258 226 217 222 233 241 243 243
345 343 345 346 342 338 334 333 324 319 318 314 312 312 312 309 304 299 293 290 285 288 285 280 266 258 258 259 252 250 251 253 262 264 258 246 249 227 225 226 235 241 241
328 339 351 349 336 342 343 339 333 329 325 318 326 320 320 320 310 300 294 289 287 289 287 286 283 280 252 270 269 264 258 256 261 258 258 258 263 262 229 230 228 232 238
323 340 349 348 345 344 350 347 338 336 337 344 338 342 344 323 319 309 296 293 294 292 290 286 281 279 283 268 257 257 262 265 265 262 256 250 252 257 260 252 228 228 231
305 333 334 343 348 345 356 352 344 346 346 353 359 351 342 342 336 328 313 301 295 287 282 278 274 274 279 286 289 288 275 264 263 264 262 259 251 244 249 253 248 233 233
230 321 345 342 350 350 353 352 352 346 336 354 6 353 358 357 1 343 341 329 307 294 295 294 290 287 281 278 281 277 270 260 261 257 252 250 250 246 243 249 253 255 249
224 10 0 357 351 352 347 339 332 331 328 337 3 354 358 358 1 3 360 352 355 357 347 338 320 299 288 284 281 289 288 280 267 261 260 247 248 258 257 253 254 252 251
160 22 359 347 342 347 343 328 335 338 340 348 348 351 357 0 6 1 353 354 352 353 347 346 346 341 324 316 305 289 290 279 312 312 311 311 300 275 276 265 255 250 251
160 136 348 346 345 351 343 341 348 342 339 334 330 337 346 357 356 357 350 350 346 340 343 337 336 334 330 324 331 323 318 308 298 296 295 302 304 293 276 272 264 261 249
179 180 279 305 337 351 356 358 347 345 339 334 344 343 354 359 8 354 354 352 350 345 338 334 330 327 327 321 325 324 320 317 310 300 299 303 293 291 294 290 261 266 259
197 210 221 241 295 342 350 360 0 350 348 349 353 354 355 354 354 358 355 354 352 349 340 334 331 334 344 349 352 342 331 322 316 311 304 302 300 303 303 305 306 347 342